アトラス彗星

C/2020 M5 ( ATLAS )

English version
Home page
Updated on September 18, 2021

---------------------------------------------------------------------

・ プロフィール

発見日 2020年6月30日
発見光度 19.4等
発見者 Asteroid Terrestrial-Impact Last Alert System (ATLAS) search program

・ 写真集

・ 軌道要素

Epoch 2021 Aug. 14.0 TT = JDT 2459440.5
T 2021 Aug. 19.88085 TT                                 Rudenko
q   3.0043773            (2000.0)            P               Q
z  +0.0000042      Peri.  126.33879     -0.59315594     -0.79329072
 +/-0.0000008      Node   352.09481     -0.28629559     +0.36725271
e   0.9999873      Incl.   93.22280     +0.75246320     -0.48560816
From 498 observations 2019 Aug. 10-2021 Apr. 30, mean residual 0".6.

・ 星図

・ 光度変化

        m1 = 5.5 + 5 logΔ + 15.0 log r

---------------------------------------------------------------------

軌道要素はM.P.E.C. 2021-J28に掲載されたものです。
星図はステラナビゲータ Ver.10 (アストロアーツ) で作成したものです。
光度グラフはComet for Windowsで作成したものです。

---------------------------------------------------------------------

Copyright(C) Seiichi Yoshida (comet@aerith.net). All rights reserved.